Lincoln, NE

11:12 PM CST on December 15, 2019 (GMT -0600)
Lincoln Municipal

Weather History for KLNK - September, 2019

Change the Weather History Date:

Monday, September 16, 2019

  Actual Average Record
Temperature  
Mean Temperature 80 °F 66 °F  
Max Temperature 93 °F 79 °F 100 °F (1931)
Min Temperature 67 °F 53 °F 34 °F (1903)
Degree Days  
Heating Degree Days 0 3  
Month to date heating degree days 0 25  
Since 1 July heating degree days 0 31  
Cooling Degree Days 15 4  
Month to date cooling degree days 160 89  
Year to date cooling degree days 1212 1124  
Growing Degree Days 30 (Base 50)    
Moisture  
Dew Point 66 °F    
Average Humidity 64    
Maximum Humidity 87    
Minimum Humidity 41    
Precipitation  
Precipitation 0.00 in 0.10 in 2.53 in (1968)
Month to date precipitation 0.19 1.73  
Year to date precipitation 24.85 23.31  
Snow  
Snow 0.00 in 0.00 in 0.00 in (2006)
Month to date snowfall 0.0 0.0  
Since 1 July snowfall 0.0 0.0  
Since 1 September snowfall 0.0 0.0  
Snow Depth 0.00 in    
Sea Level Pressure  
Sea Level Pressure 29.96 in    
Wind  
Wind Speed 13 mph (South)    
Max Wind Speed 22 mph    
Max Gust Speed 28 mph    
Visibility 10 miles    
Events      
T = Trace of Precipitation, MM = Missing Value Source: NWS Daily Summary

Daily Weather History Graph

Daily Weather History Graph

Search for Another Location

Airport or City:

Astronomy

Sep. 16, 2019 Rise Set
Actual Time 7:08 AM CDT 7:34 PM CDT
Civil Twilight 6:40 AM CDT 8:02 PM CDT
Nautical Twilight 6:08 AM CDT 8:34 PM CDT
Astronomical Twilight 5:35 AM CDT 9:07 PM CDT
Moon 9:09 PM CDT 9:17 AM CDT
Length of Visible Light 13h 21m
Length of Day
12h 26m
Waning Gibbous, 94% of the Moon is Illuminated
Sep 16
Waning Gibbous
Sep 21
Last Quarter
Sep 28
New
Oct 5
First Quarter
Oct 13
Full

Hourly Weather History & Observations

Time (CDT) Temp. Heat Index Dew Point Humidity Pressure Visibility Wind Dir Wind Speed Gust Speed Precip Events Conditions
12:54 AM 72.0 °F - 66.0 °F 81% 29.96 in 10.0 mi South 5.8 mph - N/A   Clear
1:54 AM 69.1 °F - 64.9 °F 87% 29.96 in 10.0 mi South 8.1 mph - N/A   Clear
2:54 AM 70.0 °F - 64.0 °F 81% 29.97 in 10.0 mi South 5.8 mph - N/A   Clear
3:54 AM 71.1 °F - 64.0 °F 78% 29.96 in 10.0 mi SSW 8.1 mph - N/A   Clear
4:54 AM 66.9 °F - 63.0 °F 87% 29.97 in 10.0 mi South 6.9 mph - N/A   Clear
5:54 AM 66.9 °F - 63.0 °F 87% 29.98 in 10.0 mi South 9.2 mph - N/A   Clear
6:54 AM 68.0 °F - 63.0 °F 84% 29.99 in 10.0 mi South 6.9 mph - N/A   Clear
7:54 AM 70.0 °F - 64.0 °F 81% 30.01 in 8.0 mi South 8.1 mph - N/A   Clear
8:54 AM 75.9 °F - 64.9 °F 69% 30.01 in 10.0 mi South 12.7 mph - N/A   Clear
9:54 AM 81.0 °F 82.7 °F 64.9 °F 58% 30.01 in 10.0 mi South 9.2 mph - N/A   Clear
10:54 AM 84.0 °F 85.8 °F 64.9 °F 53% 30.01 in 10.0 mi SSW 15.0 mph - N/A   Clear
11:54 AM 87.1 °F 88.3 °F 64.0 °F 46% 29.99 in 10.0 mi SSW 16.1 mph 25.3 mph N/A   Clear
12:54 PM 90.0 °F 92.4 °F 66.0 °F 45% 29.97 in 10.0 mi South 16.1 mph - N/A   Clear
1:54 PM 91.9 °F 94.5 °F 66.0 °F 42% 29.95 in 10.0 mi South 18.4 mph - N/A   Clear
2:54 PM 91.0 °F 93.0 °F 64.9 °F 42% 29.94 in 10.0 mi South 17.3 mph 27.6 mph N/A   Clear
3:54 PM 91.0 °F 94.3 °F 66.9 °F 45% 29.92 in 10.0 mi South 17.3 mph 26.5 mph N/A   Clear
4:54 PM 91.0 °F 93.8 °F 66.0 °F 44% 29.91 in 10.0 mi South 20.7 mph - N/A   Clear
5:54 PM 89.1 °F 92.1 °F 66.9 °F 48% 29.91 in 10.0 mi SSE 19.6 mph 25.3 mph N/A   Clear
6:54 PM 84.9 °F 88.2 °F 68.0 °F 57% 29.92 in 10.0 mi SSE 13.8 mph - N/A   Clear
7:54 PM 82.9 °F 85.8 °F 68.0 °F 60% 29.92 in 10.0 mi SSE 13.8 mph - N/A   Clear
8:54 PM 82.0 °F 84.5 °F 66.9 °F 60% 29.92 in 10.0 mi SSE 16.1 mph - N/A   Clear
9:54 PM 81.0 °F 83.3 °F 66.9 °F 62% 29.93 in 10.0 mi SSE 18.4 mph 25.3 mph N/A   Clear
10:54 PM 79.0 °F - 66.9 °F 66% 29.93 in 10.0 mi South 15.0 mph - N/A   Clear
11:54 PM 78.1 °F - 68.0 °F 71% 29.93 in 10.0 mi South 15.0 mph - N/A   Clear